AO-07 1 07530U 74089B 26167.98236219 -.00000042 00000-0 29785-4 0 9997 2 07530 101.9900 181.2269 0012576 130.5028 286.3286 12.53698125360495 UO-11 1 14781U 84021B 26168.15425539 .00000926 00000-0 99821-4 0 9993 2 14781 97.8058 133.7292 0007651 172.3992 187.7343 14.90783243257120 LO-19 1 20442U 90005G 26168.04242580 .00000086 00000-0 47437-4 0 9997 2 20442 98.8850 189.8440 0011114 201.5317 158.5401 14.34123170902374 AO-27 1 22825U 93061C 26168.06979947 .00000083 00000-0 48401-4 0 9994 2 22825 98.6881 235.4834 0009540 100.0615 260.1644 14.30942245706988 FO-29 1 24278U 96046B 26168.08931512 .00000003 00000-0 35306-4 0 9994 2 24278 98.5239 16.9749 0350903 96.6851 267.4347 13.53274399473151 GO-32 1 25397U 98043D 26167.99414689 .00000035 00000-0 35298-4 0 9991 2 25397 99.0067 160.7479 0001050 163.2340 196.8873 14.24428360451307 ISS 1 25544U 98067A 26168.18949189 .00009113 00000-0 17172-3 0 9997 2 25544 51.6332 300.0813 0004737 195.1146 164.9702 15.49273435571752 NO-44 1 26931U 01043C 26167.94977868 .00000077 00000-0 59805-4 0 9994 2 26931 67.0506 244.8859 0006077 264.6628 95.3780 14.31956043290415 SO-50 1 27607U 02058C 26167.95299985 .00000833 00000-0 11563-3 0 9998 2 27607 64.5510 129.7097 0075272 262.5111 96.7439 14.83046700264420 CO-55 1 27844U 03031E 26167.96692816 .00000228 00000-0 11765-3 0 9996 2 27844 98.6736 176.5285 0009524 178.6032 181.5176 14.24335593191646 RS-22 1 27939U 03042A 26168.22242762 .00000353 00000-0 62611-4 0 9990 2 27939 98.3462 352.5818 0009940 269.7492 206.0998 14.73465726215554 CO-65 1 32785U 08021C 26168.18248431 .00004100 00000-0 26011-3 0 9998 2 32785 97.8272 149.6008 0009757 39.0823 321.1109 15.09451626985191 CO-66 1 32791U 08021J 26167.93971588 .00015903 00000-0 50504-3 0 9990 2 32791 97.7513 165.8255 0001090 4.6274 355.4977 15.32745063987258 RS-30 1 32953U 08025A 26168.17894034 .00000073 00000-0 45707-3 0 9992 2 32953 82.5036 355.4453 0018867 313.9508 46.0015 12.43179667819691 SRMSAT 1 37841U 11058D 26168.08915448 .00000356 00000-0 49079-4 0 9997 2 37841 19.9723 60.0600 0011791 202.5356 269.2197 14.11575544757800 ZACUBE-1 1 39417U 13066B 26168.14066506 .00002606 00000-0 20460-3 0 9990 2 39417 97.8081 130.4773 0040796 247.8306 111.8586 15.01188974680727 Delfi-N3xt 1 39428U 13066N 26168.04407378 .00004135 00000-0 36307-3 0 9993 2 39428 97.8337 88.3557 0073691 206.1268 153.6227 14.95076712674603 GOMX-1 1 39430U 13066Q 26168.18596690 .00001349 00000-0 20750-3 0 9996 2 39430 97.6476 8.6487 0130200 77.5310 284.0429 14.69459629669917 LO-74 1 39440U 13066AA 26168.13017218 .00004009 00000-0 37158-3 0 9992 2 39440 97.8909 117.1080 0058392 29.2654 331.1816 14.93761629676984 AO-73 1 39444U 13066AE 26168.18912497 .00005092 00000-0 31739-3 0 9996 2 39444 97.8278 139.6350 0035625 200.8466 159.1312 15.09490131679660 DTUSAT-2 1 40030U 14033W 26167.97371641 .00005258 00000-0 28532-3 0 9991 2 40030 98.0861 165.6872 0006601 225.8897 134.1791 15.15015825652653 LILACSAT-2 1 40908U 15049K 26168.14326480 .00015706 00000-0 26766-3 0 9990 2 40908 97.4640 204.9833 0005504 245.1794 114.8886 15.51445501595745 Horyu-4 1 41340U 16012D 26166.43547623 .00392649 54783-4 97992-3 0 9990 2 41340 30.9849 91.8834 0005149 261.3375 98.6703 15.94546005570538 Lapan A3 1 41603U 16040E 26168.19115660 .00002751 00000-0 88254-4 0 9993 2 41603 97.1487 164.3366 0010880 25.8876 334.2909 15.33104474554819 CAS-2T 1 41847U 16066G 26168.10210262 .00001464 00000-0 21211-3 0 9995 2 41847 98.3822 243.8394 0342791 129.7362 233.4574 14.44694196504787 TechnoSat 1 42829U 17042E 26168.18277976 .00003172 00000-0 22713-3 0 9990 2 42829 97.4286 325.8401 0018959 94.2358 266.1036 15.04961466486700 AO-91 1 43017U 17073E 26167.87725140 .00006435 00000-0 28237-3 0 9992 2 43017 97.4700 35.0982 0149597 330.3447 28.9362 15.12714806465347 S-Net D 1 43186U 18014G 26167.80212424 .00004256 00000-0 22071-3 0 9993 2 43186 97.5365 72.5955 0008988 31.7411 328.4362 15.16670775458709 S-Net B 1 43187U 18014H 26167.68161610 .00004473 00000-0 23196-3 0 9990 2 43187 97.5370 72.4624 0009465 26.9025 333.2696 15.16639326458684 S-Net A 1 43188U 18014J 26167.80100387 .00004229 00000-0 21925-3 0 9996 2 43188 97.5381 72.7895 0009365 27.3118 332.8605 15.16678733458700 S-Net C 1 43189U 18014K 26168.01537638 .00004523 00000-0 23450-3 0 9996 2 43189 97.5398 73.0773 0010475 18.2964 341.8644 15.16634136457284 Ten-Koh 1 43677U 18084G 26168.05711382 .00001650 00000-0 12764-3 0 9993 2 43677 98.0772 0.4153 0011540 114.5368 245.7060 15.02943374416142 PO-101 1 43678U 18084H 26168.16987603 .00001848 00000-0 15186-3 0 9997 2 43678 98.1176 4.3769 0012454 170.1623 189.9846 15.00451413416210 QO-100 1 43700U 18090A 26167.76128993 .00000141 00000-0 00000 0 0 9994 2 43700 0.0175 13.0563 0001609 111.1044 80.7103 1.00270422 27674 MinXSS-2 1 43758U 18099A 26167.70365159 .00028753 00000-0 57221-3 0 9997 2 43758 97.4538 243.9738 0006573 256.6058 103.4459 15.46870050414050 AO-95 1 43770U 18099N 26168.07768584 .00008495 00000-0 32585-3 0 9998 2 43770 97.4377 228.3240 0008015 358.3835 1.7377 15.26709473413209 SNUSat 2 1 43782U 18099AA 26168.07030009 .00006616 00000-0 29389-3 0 9996 2 43782 97.4057 221.4559 0008624 299.1152 60.9220 15.21837437413014 SnugLite 1 43784U 18099AC 26168.07815714 .00008831 00000-0 33414-3 0 9997 2 43784 97.3864 222.3590 0001192 291.7097 68.4015 15.27177307413301 ITASat 1 1 43786U 18099AE 26168.08754567 .00005482 00000-0 26431-3 0 9998 2 43786 97.4026 219.6012 0012101 0.6685 359.4564 15.19055872412892 EAGLET 1 1 43790U 18099AJ 26167.85440252 .00002975 00000-0 17226-3 0 9996 2 43790 97.4229 217.5319 0010697 355.8088 4.3052 15.12938396412284 ESEO 1 43792U 18099AL 26168.11380682 .00001788 00000-0 13261-3 0 9994 2 43792 97.3974 205.5049 0011324 340.2605 19.8182 15.04248019411797 JO-97 1 43803U 18099AX 26167.70427300 .00013619 00000-0 42078-3 0 9994 2 43803 97.4127 230.5368 0004320 264.4420 95.6330 15.33640706413557 Suomi 100 1 43804U 18099AY 26167.68250233 .00009519 00000-0 34649-3 0 9990 2 43804 97.4182 228.0775 0008334 281.2110 78.8193 15.28405633413344 ISAT 1 43879U 18111D 26167.33112204 .00082852 00000-0 83408-3 0 9992 2 43879 97.5885 102.4869 0000839 128.9193 231.2141 15.65156553411033 UWE-4 1 43880U 18111E 26167.76208191 .00028639 00000-0 58526-3 0 9998 2 43880 97.5856 96.1335 0005598 344.6304 15.4774 15.46104351410714 Sparrow 1 43881U 18111F 26168.06753487 .00149350 00000-0 10181-2 0 9994 2 43881 97.6130 108.8960 0004489 112.7425 247.4314 15.74405767411356 Prox-1 1 44339U 19036A 26168.19115727 .00010269 00000-0 99479-3 0 9997 2 44339 23.9926 114.2231 0005754 36.9692 323.1203 14.90607207373470 Taurus 1 1 44530U 19059C 26168.17479620 .00002950 00000-0 47761-3 0 9993 2 44530 98.6413 333.0018 0007371 316.4910 43.5713 14.72092192358645 TO-108 1 44881U 19093C 26168.17937637 .00000851 00000-0 10197-3 0 9998 2 44881 97.7538 240.4116 0015136 86.9389 273.3558 14.86521169351413 RS-44 1 44909U 19096E 26168.16155683 .00000014 00000-0 71768-5 0 9998 2 44909 82.5218 339.7219 0218169 144.2252 217.3691 12.79748847302343 SALSAT 1 46495U 20068K 26168.01469823 .00006653 00000-0 23324-3 0 9997 2 46495 97.8847 171.0688 0008038 308.8582 51.1939 15.29798435315333 CSS (TIANHE-1) 1 48274U 21035A 26168.10500785 .00019479 00000-0 23020-3 0 9995 2 48274 41.4698 322.5016 0007450 76.7356 283.4313 15.60807572293153 CUTE 1 49263U 21088D 26167.87351093 .00142724 98108-5 41038-3 0 9991 2 49263 97.4164 267.1367 0007725 230.0922 129.9674 15.93099789262501 TeikyoSat 4 1 49396U 21102B 26168.05436613 .00001341 00000-0 87369-4 0 9994 2 49396 97.3672 197.5431 0010488 297.4110 62.6052 15.09507953252703 Z-Sat 1 49399U 21102E 26168.19798733 .00003131 00000-0 15566-3 0 9994 2 49399 97.3316 203.5207 0014921 244.4750 115.4942 15.18263858253448 KOSEN 1 1 49402U 21102H 26168.07610473 .00005879 00000-0 22522-3 0 9991 2 49402 97.3179 210.2355 0013179 200.7965 159.2740 15.26833489254003 HO-113 1 50466U 21131B 26168.19344968 .00000384 00000-0 13213-3 0 9994 2 50466 98.4989 260.5827 0005398 97.0630 263.1173 14.41357609235115 SNUGLITE 2 1 52899U 22065F 26168.16770461 .00000759 00000-0 15290-3 0 9994 2 52899 98.2202 312.9981 0008008 33.1405 327.0298 14.64347616210997 UmKA 1 (RS40S) 1 57172U 23091G 26168.15971516 .00004936 00000-0 22640-3 0 9994 2 57172 97.5048 226.8569 0014237 117.7218 242.5463 15.20818474164006 CubeBel-2 (EU11S) 1 57175U 23091K 26168.18384053 .00010837 00000-0 38488-3 0 9998 2 57175 97.5049 231.4006 0011285 114.6617 245.5799 15.29152505164300 RS-38S 1 57189U 23091Z 26168.14761780 .00013445 00000-0 38499-3 0 9995 2 57189 97.5092 237.6319 0008271 77.7825 282.4344 15.36025142164680 SONATE-2 1 59112U 24043Q 26168.13831606 .00033018 00000-0 42907-3 0 9992 2 59112 97.5535 318.5306 0007046 195.8556 164.2480 15.58714005127883 GRBBeta 1 60237U 24128C 26167.68909538 .00002596 00000-0 18568-3 0 9998 2 60237 61.9884 218.0139 0040716 134.5575 225.8855 15.06636880106193 Curium One 1 60242U 24128H 26167.57510954 .00004997 00000-0 29299-3 0 9992 2 60242 61.9767 207.9432 0039823 130.6909 229.7658 15.12504851106369 ROBUSTA-3A 1 60243U 24128J 26167.60567462 .00004187 00000-0 25309-3 0 9992 2 60243 61.9848 210.3011 0041447 127.8993 232.5862 15.11671493106339 CatSat 1 60246U 24125J 26167.49770833 .00049368 00000-0 63623-3 0 9998 2 60246 97.2079 19.9890 0022367 181.7412 178.3770 15.58572452107289 HYPERVIEW-1G (RS66S) 1 61772U 24199AP 26167.99911042 .00131788 00000-0 84820-3 0 9998 2 61772 97.2863 47.7091 0003694 219.4050 140.6947 15.75792351134645 AO-123 1 61781U 24199AY 26168.16499698 .00005901 00000-0 17206-3 0 9997 2 61781 97.2995 36.8360 0012312 314.2353 45.7879 15.35674881133928 JINJUSat 1B 1 63210U 25052A 26167.68917838 .00012762 00000-0 39628-3 0 9997 2 63210 97.4007 64.4436 0005487 91.7275 268.4596 15.33490601 70024 NUSHSAT 1 1 63211U 25052B 26167.99426719 .00017895 00000-0 51261-3 0 9994 2 63211 97.3984 65.3142 0005218 94.0535 266.1305 15.35965660 70116 TEVEL2-4 1 63213U 25052D 26167.98658140 .00016047 00000-0 48034-3 0 9992 2 63213 97.3904 64.3780 0004860 103.4475 256.7310 15.34605865 70081 TEVEL2-5 1 63214U 25052E 26167.94184661 .00015322 00000-0 46132-3 0 9993 2 63214 97.3902 64.2812 0004796 104.9018 255.2757 15.34430962 70074 TEVEL2-6 1 63215U 25052F 26168.14981521 .00014311 00000-0 43150-3 0 9991 2 63215 97.3903 64.4736 0004692 104.9299 255.2464 15.34400540 70107 TEVEL2-1 1 63217U 25052H 26167.98311731 .00015254 00000-0 46759-3 0 9999 2 63217 97.3878 63.9315 0004776 114.0246 246.1497 15.33862790 70062 TEVEL2-3 1 63218U 25052J 26167.97776757 .00015147 00000-0 46354-3 0 9994 2 63218 97.3882 63.9480 0004723 114.1810 245.9927 15.33918227 70063 TEVEL2-2 1 63219U 25052K 26167.65724747 .00014434 00000-0 44263-3 0 9997 2 63219 97.3883 63.6082 0004715 115.1533 245.0199 15.33861744 70012 TEVEL2-9 1 63237U 25052AD 26167.96058942 .00013167 00000-0 42947-3 0 9997 2 63237 97.3943 63.2870 0007801 131.5476 228.6436 15.31891765 69997 TEVEL2-7 1 63238U 25052AE 26167.67478499 .00012652 00000-0 41668-3 0 9996 2 63238 97.3945 62.9183 0007828 132.5601 227.6303 15.31589641 69947 TEVEL2-8 1 63239U 25052AF 26167.68303146 .00012386 00000-0 40821-3 0 9998 2 63239 97.3946 62.9032 0007849 133.0156 227.1744 15.31573973 69941 SPIRONE 1 66657U 25274H 26168.05397147 .00001387 00000-0 13687-3 0 9996 2 66657 97.7482 97.3473 0012655 21.8781 338.2977 14.93543968 30204 K-HERO 1 66660U 25274L 26167.72371610 .00001444 00000-0 14072-3 0 9993 2 66660 97.7487 97.1821 0014688 26.1853 334.0107 14.93960320 30163 SNUGLITE-III DURI 1 66661U 25274M 26167.71150347 .00001246 00000-0 12202-3 0 9998 2 66661 97.7487 97.1906 0015350 26.9691 333.2323 14.94000985 30167 SAKHACUBE-CHOLBON 1 67290U 25313AU 26167.70092354 .00007921 00000-0 32105-3 0 9993 2 67290 97.3933 242.7415 0008884 7.1471 352.9891 15.24881376 25901 RS95S (QMR-KWT-2) 1 67291U 25313AV 26168.01744105 .00012110 00000-0 46895-3 0 9994 2 67291 97.3931 243.2292 0008230 3.8879 356.2422 15.26290824 25966 Ten-Koh2 1 68261U 25241B 26166.70419506 .00005304 00000-0 23027-3 0 9999 2 68261 51.6697 326.6857 0006067 137.6687 222.4761 15.23889978 14686 JACK-002 1 68417U 26067B 26167.63458326 .00005644 00000-0 26992-3 0 9996 2 68417 97.4571 126.2320 0000242 9.1449 350.9790 15.19388001 11867 DISCO 2 1 68431U 26067R 26167.85325242 .00006771 00000-0 32607-3 0 9998 2 68431 97.4603 126.4365 0002841 44.7727 315.3736 15.19068757 11892 HADES-SA (SpinnyONE) 1 68446U 26067AG 26168.15594563 .00016320 00000-0 77982-3 0 9998 2 68446 97.4412 126.4529 0009466 82.0596 278.1713 15.19060224 11923 PARUS-6U1 1 68456U 26067AS 26168.12250442 .00004612 00000-0 23318-3 0 9996 2 68456 97.4556 126.4869 0007487 72.1443 288.0606 15.17516216 11928 SAL-E 1 68458U 26067AU 26167.85423580 .00006039 00000-0 30219-3 0 9995 2 68458 97.4480 126.1591 0007935 80.0139 280.1989 15.17751005 11882 FSI-SAT 2 1 68792U 26088A 26168.15294926 .00003666 00000-0 24934-3 0 9993 2 68792 97.5076 317.4125 0015868 106.8397 253.4572 15.06837406 8289 OrigamiSat 2 1 68795U 26088D 26168.16219010 .00010035 00000-0 64098-3 0 9991 2 68795 97.5076 317.5574 0016100 81.2845 279.0206 15.08736280 8294 ARICA 2 1 68796U 26088E 26168.16145014 .00003958 00000-0 25751-3 0 9993 2 68796 97.5064 317.5467 0016979 80.3825 279.9321 15.08427950 8293 WASEDA-SAT-ZERO-II 1 68797U 26088F 26168.15717008 .00005157 00000-0 33234-3 0 9999 2 68797 97.5064 317.5511 0016773 80.3758 279.9365 15.08643505 8295 MANGARO-II-Piscus 1 68798U 26088G 26168.14762449 .00003128 00000-0 20208-3 0 9991 2 68798 97.5075 317.5709 0020596 82.6191 277.7377 15.08786397 8297 IO-86 1 40931U 25360.30710720 .00000000 00000-0 12800-3 0 00 2 40931 6.0006 332.5373 0012733 338.8432 8.1437 14.79075515 01 LILIUM-4 1 71922C 26067AC 26089.50133053 -.00014632 00000 0 -74472-3 0 04 2 71922 97.4497 49.1617 0004341 5.9603 355.7042 15.16896692 16